Regional Weather Roundup
Issued by NWS State College, PA

Home | Current Version | Previous Version | Text Only | Print | Product List | Glossary Off
Versions: 1 2 3 4 5 6 7 8 9 10 11 12 13 14 15 16 17 18 19 20 21 22 23 24 25 26 27 28 29 30 31 32 33 34 35 36 37 38 39 40 41 42 43 44 45 46 47 48 49 50

000
ASUS41 KCTP 270410
RWRCTP

REGIONAL WEATHER ROUNDUP
NATIONAL WEATHER SERVICE STATE COLLEGE PA
1200 AM EDT WED MAY 27 2015

Note: "fair" indicates few or no clouds below 12,000 feet with no
significant weather and/or obstructions to visibility.

* = STATION THAT DOES NOT REPORT PRECIPITATION /E.G. RAIN...SNOW...ETC/
    THUNDER OR FOG.

PAZ002>004-007>009-013>016-020>023-029>032-270500-
WESTERN PENNSYLVANIA

CITY           SKY/WX    TMP DP  RH WIND       PRES   REMARKS
ERIE           PTCLDY    75  63  66 S13       29.99S
MEADVILLE      PTCLDY    71  63  75 VRB6      30.04F
FRANKLIN*      PTCLDY    68  61  77 S8        30.08S
NEW CASTLE     LGT RAIN  72  68  87 S5G26     30.07R
BEAVER COUNTY  NOT AVBL
BUTLER*        CLOUDY    72  63  73 W10       30.10R
PITTSBURGH INT LGT RAIN  70  63  78 SW14G25   30.08R
PITTSBURGH     MOCLDY    73  60  63 S8        30.07F
INDIANA*       CLEAR     72  64  78 S5        30.13F
LATROBE        MOCLDY    75  64  69 S10       30.10F
WASHINGTON CO* CLOUDY    72  64  78 CALM      30.11R
$$

PAZ004>006-010>012-017>019-024>028-033>037-041-042-045-046-049>053-270500-
CENTRAL PENNSYLVANIA

CITY           SKY/WX    TMP DP  RH WIND       PRES   REMARKS
BRADFORD       CLEAR     65  61  87 SE6       30.12S
DUBOIS         PTCLDY    71  63  75 SE5       30.10S
CLEARFIELD     PTCLDY    65  62  90 CALM      30.12S
JOHNSTOWN      CLEAR     68  62  81 S9        30.15S
ALTOONA        CLEAR     73  64  73 S10       30.13F
STATE COLLEGE  PTCLDY    72  64  75 SW7       30.12S
WILLIAMSPORT   CLEAR     68  66  93 CALM      30.09F
SELINSGROVE    MOCLDY    73  66  78 CALM      30.12S
FT INDIANTOWN  CLOUDY    74  66  77 S5        30.15S
CAPITAL CITY   MOCLDY    76  65  68 S10       30.13S
HARRISBURG     MOCLDY    75  67  76 S7        30.13S
YORK           MOCLDY    74  66  76 S7        30.14F
$$

PAZ038>040-043-044-047-048-054-055-060>062-067>071-270500-
EASTERN PENNSYLVANIA

CITY           SKY/WX    TMP DP  RH WIND       PRES   REMARKS
SCRANTON       PTCLDY    75  64  68 S6        30.14S
MOUNT POCONO   CLEAR     69  63  81 SW9       30.20S
ALLENTOWN      CLEAR     76  65  68 SW7       30.16R
QUAKERTOWN*    CLEAR     73  66  78 SW6       30.18S
READING        CLEAR     75  65  70 S9        30.15S
LANCASTER      PTCLDY    73  64  73 S7        30.15F
COATESVILLE    CLEAR     72  64  78 S5        30.19S
POTTSTOWN      CLEAR     74  64  71 S7        30.18S
BLUE BELL      CLEAR     73  64  73 SW3       30.17S
DOYLESTOWN     CLEAR     72  64  76 S5        30.17S
WILLOW GROVE   NOT AVBL
NORTH PHILA    CLEAR     74  61  63 VRB5      30.19S
PHILADELPHIA   PTCLDY    74  63  68 SW9       30.18S
$$


USA.gov is the U.S. government's official web portal to all federal, state and local government web resources and services.